Zurück zum Katalog

STARLINK-37048

AktivKommunikationSSO
NORAD 68155·PAYLOAD·🇺🇸 United States

Gestartet Mar 13, 2026 von Vandenberg Space Force Base

Loading…

Nächste Überflüge (nächste 24 Stunden)

TLE

AktuellSource: CelesTrak SupGP

Epoche: Sep 14, 2026, 21:10 UTC

1 68155C 26049P   26257.88243056  .00013510  00000+0  41942-3 0  2573
2 68155  97.2837 277.8519 0001198 110.1205 319.5077 15.33429726    16

Verfolge STARLINK-37048 in Echtzeit mit AllMySat

Download on the App Store